Gunnison, CO

6:06 AM MST on December 08, 2019 (GMT -0700)
Gunnison County

Weather History for KGUC - November, 2019

Change the Weather History Date:

Wednesday, November 13, 2019

  Actual Average Record
Temperature  
Mean Temperature 32 °F -  
Max Temperature 52 °F 40 °F 61 °F (2017)
Min Temperature 12 °F 13 °F -5 °F (2000)
Degree Days  
Heating Degree Days 33    
Moisture  
Dew Point 12 °F    
Average Humidity 56    
Maximum Humidity 88    
Minimum Humidity 21    
Precipitation  
Precipitation 0.00 in - - ()
Sea Level Pressure  
Sea Level Pressure 30.26 in    
Wind  
Wind Speed 3 mph ()    
Max Wind Speed 15 mph    
Max Gust Speed 25 mph    
Visibility 10.0 miles    
Events      
Averages and records for this station are not official NWS values.
T = Trace of Precipitation, MM = Missing Value Source: Averaged Metar Reports

Daily Weather History Graph

Daily Weather History Graph

Search for Another Location

Airport or City:

Astronomy

Nov. 13, 2019 Rise Set
Actual Time 6:47 AM MST 4:56 PM MST
Civil Twilight 6:18 AM MST 5:24 PM MST
Nautical Twilight 5:47 AM MST 5:56 PM MST
Astronomical Twilight 5:15 AM MST 6:27 PM MST
Moon 6:01 PM MST (11/13) 7:43 AM MST (11/13)
Length of Visible Light 11h 05m
Length of Day
10h 09m
Full, 98% of the Moon is Illuminated
Nov 13
Full
Nov 19
Last Quarter
Nov 26
New
Dec 3
First Quarter
Dec 11
Full

Hourly Weather History & Observations

Time (MST) Temp. Windchill Dew Point Humidity Pressure Visibility Wind Dir Wind Speed Gust Speed Precip Events Conditions
12:56 AM 16.0 °F - 12.0 °F 84% 30.30 in 10.0 mi Calm Calm - N/A   Clear
1:56 AM 18.0 °F 12.7 °F 10.9 °F 74% 30.26 in 10.0 mi NNE 3.5 mph - N/A   Clear
2:56 AM 16.0 °F - 10.9 °F 81% 30.25 in 10.0 mi Calm Calm - N/A   Clear
3:56 AM 12.0 °F - 9.0 °F 88% 30.27 in 10.0 mi Calm Calm - N/A   Clear
4:56 AM 12.9 °F - 9.0 °F 84% 30.28 in 10.0 mi Calm Calm - N/A   Clear
5:56 AM 12.9 °F - 9.0 °F 84% 30.33 in 10.0 mi Calm Calm - N/A   Overcast
6:56 AM 12.9 °F - 9.0 °F 84% 30.36 in 10.0 mi Calm Calm - N/A   Clear
7:56 AM 17.1 °F 10.0 °F 10.0 °F 74% 30.39 in 10.0 mi East 4.6 mph - N/A   Clear
8:56 AM 21.0 °F - 12.9 °F 71% 30.38 in 10.0 mi Calm Calm - N/A   Clear
9:56 AM 30.0 °F - 14.0 °F 51% 30.35 in 10.0 mi Calm Calm - N/A   Clear
10:56 AM 35.1 °F - 12.0 °F 39% 30.28 in 10.0 mi Calm Calm - N/A   Clear
11:56 AM 45.0 °F - 12.9 °F 27% 30.19 in 10.0 mi Calm Calm - N/A   Clear
12:56 PM 50.0 °F - 12.9 °F 23% 30.14 in 10.0 mi West 8.1 mph - N/A   Clear
1:56 PM 52.0 °F - 12.9 °F 21% 30.09 in 10.0 mi SW 15.0 mph 19.6 mph N/A   Clear
2:56 PM 51.1 °F - 12.9 °F 22% 30.09 in 10.0 mi WSW 15.0 mph 25.3 mph N/A   Clear
3:56 PM 50.0 °F - 12.0 °F 22% 30.14 in 10.0 mi WSW 13.8 mph - N/A   Clear
4:56 PM 46.9 °F - 12.9 °F 25% 30.17 in 10.0 mi WSW 6.9 mph - N/A   Clear
5:56 PM 41.0 °F 37.1 °F 12.9 °F 32% 30.22 in 10.0 mi NNW 5.8 mph - N/A   Clear
6:56 PM 36.0 °F 32.1 °F 14.0 °F 41% 30.28 in 10.0 mi South 4.6 mph - N/A   Clear
7:56 PM 33.1 °F 28.7 °F 15.1 °F 48% 30.30 in 10.0 mi North 4.6 mph - N/A   Clear
8:56 PM 30.0 °F 21.7 °F 16.0 °F 56% 30.31 in 10.0 mi North 9.2 mph - N/A   Clear
9:56 PM 26.1 °F 21.9 °F 15.1 °F 63% 30.30 in 10.0 mi NE 3.5 mph - N/A   Clear
10:56 PM 23.0 °F - 15.1 °F 72% 30.30 in 10.0 mi Calm Calm - N/A   Clear
11:56 PM 21.0 °F - 15.1 °F 78% 30.27 in 10.0 mi Calm Calm - N/A   Clear